Location: Celina Division
(33.3022°N, 96.7580°W)
Time: 14:45:04
(UTC+00:00)

DUCHIFAT 1 - Pass Details

Date: 06 April 2023
Orbit: 567 x 581 km, 98.1° (Epoch: 28 May)

Event Time Altitude Azimuth Distance (km) Brightness Sun altitude
Rises 09:51:46 0° 7° (N) 2,775 ? -27.8°
Reaches altitude 10° 09:53:57 10° 3° (N) 1,872 ? -27.4°
Enters shadow 09:55:42 24° 355° (N) 1,187 ? -27.1°
